Dewpoint
6 5 3 -0 3 4 5 8 8 6 4 -0 -7 -4 1 2 3 1 -1 -4 -7 -6 -2 -2 -2 1 1 -4 -4 -2 1 0 -0 -0 1 -1 -1 -2 -2 -2 -3 -4 -4 -3 3
2 0 0 1 3 3 7 8 7 5 -0 -6 -4 1 1 1 0 -4 -8 -10 -9 -3 -1 -1 -2 -2 -3 -4 -4 0 2 0 -2 -2 -1 -2 -2 -2 -3 -3 -3 -3 -3 -3 -3
3 3 3 4 4 5 7 8 6 -1 -3 -3 0 0 -0 -3 -5 -5 -6 -9 -6 -2 -1 -1 -2 -3 -4 -3 -4 -1 1 -2 -0 -1 -3 -3 -4 -5 -4 -4 -6 -6 -4 -4 -4
3 3 3 4 6 7 8 4 -3 -0 1 1 -0 -1 -5 -3 -4 -5 -4 -6 -7 -5 -1 -3 -5 -5 -4 -5 -6 -2 -3 -1 -2 -4 -5 -5 -6 -7 -6 -6 -7 -8 -10 -5 -5
2 2 3 5 6 7 3 -1 1 2 1 -1 -4 -6 -4 -5 -4 -4 -4 -7 -8 -4 -3 -5 -6 -6 -6 -7 -6 -4 -4 -4 -5 -7 -8 -9 -9 -9 -10 -12 -10 -11 -12 -12 -12
2 2 2 2 3 2 0 1 1 -0 -2 -5 -6 -4 -4 -5 -4 -5 -5 -7 -9 -7 -5 -5 -7 -7 -8 -8 -7 -6 -6 -7 -8 -8 -7 -7 -6 -7 -12 -10 -10 -11 -11 -11 -10
2 1 2 3 1 2 1 0 -0 -2 -5 -5 -4 -5 -6 -3 -3 -3 -7 -7 -8 -10 -8 -8 -7 -8 -8 -9 -9 -10 -9 -9 -7 -6 -5 -6 -8 -4 -9 -8 -8 -8 -10 -9 -9
2 -0 1 1 1 0 -0 -1 -2 -3 -5 -4 -5 -8 -4 -3 -5 -4 -6 -10 -9 -9 -10 -10 -11 -10 -9 -9 -8 -7 -8 -6 -5 -5 -4 -6 -7 -7 -6 -7 -8 -9 -7 -8 -8
-0 1 0 -1 -1 -1 -1 -3 -7 -7 -7 -4 -4 -4 -6 -6 -8 -7 -8 -12 -14 -14 -14 -14 -14 -7 -4 -4 -3 -5 -8 -6 -4 -2 -2 -3 -4 -4 -9 -7 -7 -7 -5 -5 -6
-4 -4 -4 -6 -6 -7 -4 -1 -1 -3 -3 -3 -3 -5 -4 -5 -8 -12 -11 -12 -12 -9 -11 -5 -1 1 -1 -0 1 -3 -4 -5 -6 -1 -2 -1 -1 -3 -3 -3 -3 -4 -4 -3 -2
-5 -6 -6 -5 -5 -5 -2 -0 -1 -3 -2 -1 -2 -2 -1 -1 -6 -10 -11 -8 -6 -5 -5 0 2 0 -0 -1 -2 -2 -2 -2 -4 -1 -1 -1 -0 -2 -2 -2 -2 -3 -3 -2 -2
-7 -6 -5 -5 -5 -5 -2 0 -3 -3 -1 -0 -2 -0 1 0 -3 -7 -5 -4 -5 -4 -2 1 1 0 -0 -1 -2 -2 -2 -2 -2 -1 -1 -0 0 -1 -2 -2 -3 -3 -3 -2 -2
-9 -6 -6 -6 -5 -4 -3 -3 -3 -3 -4 -2 -2 -2 -1 -2 -1 -4 -3 -2 -1 1 2 2 1 -1 0 -1 -1 -1 -1 0 2 2 0 -1 -7 -1 -2 -3 -4 -4 -3 -3 -3
-9 -9 -8 -5 -6 -6 -7 -8 -9 -5 -0 -3 -2 -3 -2 0 -1 -3 -2 -1 -1 1 1 0 -1 0 1 0 -1 -1 1 1 2 2 -1 -1 -7 -1 -2 -3 -4 -4 -4 -3 -3
-9 -8 -9 -8 -8 -7 -8 -6 -6 -2 -6 -4 -1 -1 0 1 -1 -3 0 -0 0 -1 1 -0 0 1 2 1 -0 2 1 1 1 3 2 2 2 0 -2 -3 -4 -3 -2 -2 -3
-8 -8 -7 -9 -8 -8 -7 -7 -4 -0 -9 -3 -2 -1 -0 -0 -0 -1 -2 -2 -0 1 0 0 -0 1 1 -1 -0 0 2 2 2 3 3 3 1 -3 2 -1 -2 -2 -2 -2 -3
-8 -9 -7 -6 -8 -8 -6 -2 -1 -1 -4 -1 -0 -2 -1 -1 -1 -2 -1 -2 1 -2 -1 2 2 1 1 2 1 2 2 -1 -3 5 1 2 -1 -2 -0 -1 -1 -1 -2 -2 -2
-9 -10 -8 -6 -6 -7 -6 -4 -4 -4 -3 -3 -1 -2 -1 -1 -2 -2 -2 -0 -4 -2 2 2 -3 2 1 1 2 1 0 -1 -12 1 -0 1 -0 1 -3 -2 -2 -2 -1 -5 -7
-11 -10 -9 -7 -7 -6 -0 1 0 -2 -4 -1 -1 -1 -1 -2 -2 -3 -2 -2 -2 -3 -2 -2 1 0 0 1 1 2 2 -0 -2 0 0 -2 -1 -2 -2 -3 -2 -6 -7 -8 -8
-10 -5 -10 -9 -6 -0 -1 1 -2 -1 -0 -2 -1 -3 -2 -2 -1 -3 -2 -2 -1 -2 -3 -4 -5 -1 1 1 1 2 -0 2 1 0 -0 -2 -1 0 0 -3 -6 -7 -7 -7 -7
-6 -1 -10 -5 -1 -2 1 -0 -0 -1 0 -1 -1 -4 -5 -4 -5 -7 -2 -2 -2 -2 -3 -4 -5 -2 0 2 3 1 1 0 -1 -1 -1 -1 -1 2 -0 -2 -6 -7 -6 -6 -5
-5 -3 -7 -2 -1 -1 1 -1 -1 -1 -1 -2 -2 -3 -4 -5 -6 -6 -4 -2 -2 -2 -2 -2 -3 -2 -1 -1 -2 -0 1 -1 -0 -1 -3 -3 -2 -6 -1 -1 -7 -7 -5 -4 -4
-6 -1 -2 -4 0 -0 -1 -1 -1 -1 -3 -3 -2 -3 -4 -5 -5 -6 -3 -3 -2 -2 -2 -3 -3 -3 -1 -2 -3 -3 -2 -0 -1 -0 -0 -1 -6 -7 -4 -3 -7 -7 -5 -4 -4
0 2 -1 -5 -4 -2 -2 -1 -0 -2 -2 -3 -3 -3 -4 -4 -4 -4 -5 -2 -2 -1 -2 -3 -2 -5 -2 -4 -5 -1 -2 -2 -1 1 -2 -1 -7 -6 -5 -7 -7 -7 -5 -4 -4
-2 -0 -2 -0 -2 -4 -4 -5 -1 -0 -2 -2 -2 -3 -4 -6 -6 -5 -6 -2 -1 -0 -1 -1 0 -2 -2 -2 -2 -2 -2 -3 -0 -1 -2 -5 -5 -7 -6 -6 -7 -7 -5 -4 -3
-1 -1 -1 -1 -2 -2 -5 -4 -5 -4 -3 -2 -2 -5 -5 -5 -6 -8 -7 -6 -6 0 -0 -1 -2 -1 -1 -2 -1 -1 -1 -2 -3 -3 -1 -1 -2 -5 -5 -6 -6 -5 -4 -3 -3
-0 0 1 1 -0 -0 -4 -5 -4 -5 -4 -4 -4 -4 -4 -4 -3 -4 -4 -4 -4 -1 -0 0 0 -0 1 -0 -0 1 -1 -1 -3 -4 -4 -2 -5 -7 -6 -5 -4 -4 -3 -2 -2
Wind_Speed
19 15 13 15 14 12 12 18 13 8 5 10 17 22 24 21 13 11 6 2 4 8 11 10 12 12 6 1 2 2 4 2 3 3 4 3 2 1 1 3 1 2 5 5 9
17 14 12 14 14 13 13 14 10 6 8 17 21 26 24 15 10 8 5 5 9 13 14 13 11 8 4 1 3 4 4 1 3 2 3 4 3 2 1 3 4 7 8 8 8
17 15 13 10 11 14 15 13 7 9 16 20 24 24 17 11 8 5 5 6 10 11 10 10 9 1 3 2 4 3 3 5 3 5 4 3 1 4 0 3 1 3 10 11 9
16 14 11 9 18 17 16 13 9 14 19 23 21 16 8 4 5 2 5 7 9 9 12 13 10 3 3 3 3 5 5 4 2 3 3 2 4 6 8 9 3 7 6 9 11
15 17 17 18 20 21 15 16 16 19 21 20 14 6 6 7 6 6 7 9 10 11 13 10 5 3 4 5 3 4 3 5 3 2 2 3 6 7 17 17 15 13 13 14 13
16 20 18 16 21 17 17 17 19 20 20 16 6 4 3 6 9 11 6 8 10 12 11 6 7 8 7 5 5 3 6 4 1 0 3 2 5 5 7 5 5 11 18 18 13
27 27 24 23 22 20 19 17 16 17 15 8 8 10 13 9 10 12 10 8 9 10 11 6 7 3 4 4 4 4 2 0 2 1 1 6 3 7 6 9 5 6 8 9 8
19 24 21 24 24 20 17 17 15 11 11 11 10 9 8 10 10 10 11 13 11 11 9 9 7 9 5 7 2 2 3 2 2 2 2 3 8 5 5 10 11 9 9 14 13
17 13 14 18 19 19 16 14 12 11 10 4 7 4 5 7 8 10 8 13 15 14 12 9 6 5 4 3 4 4 1 3 2 2 2 0 9 5 5 7 11 14 16 16 15
17 16 15 17 20 19 19 22 20 10 8 8 9 5 5 5 8 9 9 10 9 11 9 5 6 4 5 5 3 2 2 3 2 1 2 4 17 14 21 25 25 18 13 10 7
17 18 18 21 16 10 4 2 3 7 22 10 9 13 11 13 9 8 10 11 8 6 4 5 7 2 2 2 0 1 0 3 1 2 6 4 14 18 23 18 18 12 6 10 10
11 8 3 0 3 4 1 2 8 11 12 14 15 14 10 5 4 7 5 3 3 4 3 6 3 1 3 0 0 1 3 4 5 2 4 6 17 7 7 5 5 10 12 11 9
11 10 10 7 6 8 10 15 12 7 7 8 10 7 6 8 6 7 4 5 7 6 4 6 3 2 1 5 4 2 1 1 3 7 4 7 6 2 4 7 16 13 11 11 7
9 6 4 6 6 7 8 8 4 2 5 8 5 5 5 3 5 9 5 3 6 4 4 5 2 3 2 2 1 1 2 2 4 5 3 3 4 5 0 1 2 7 8 8 5
7 5 5 2 4 2 3 2 1 2 5 4 4 3 6 4 3 7 6 6 4 3 5 3 3 2 4 2 1 2 0 1 1 2 4 3 4 6 2 1 3 8 11 6 2
7 5 2 2 2 2 1 2 2 6 2 4 2 0 1 2 2 3 4 5 4 4 5 2 1 1 1 1 1 1 4 3 2 3 3 3 5 5 2 1 3 4 8 6 4
6 9 4 1 2 2 1 1 5 6 3 3 1 2 3 1 2 1 3 3 2 4 2 2 1 1 1 1 3 7 5 3 5 4 4 1 3 7 4 3 7 6 6 7 7
6 8 7 3 2 3 3 5 7 2 2 2 1 1 2 3 2 0 2 2 4 3 3 4 6 1 0 2 2 2 5 4 4 1 5 2 5 4 2 7 7 6 9 8 7
4 11 15 6 3 5 2 5 6 1 1 2 1 1 1 1 1 2 3 2 3 5 4 2 3 1 3 3 2 1 0 3 3 3 3 3 4 5 3 3 8 9 8 8 7
2 3 18 6 6 3 5 4 3 2 4 1 1 1 2 3 1 2 3 2 2 2 2 1 1 1 0 3 2 1 0 1 2 1 4 5 4 4 2 4 3 4 6 4 7
4 3 15 5 4 5 4 2 3 1 3 3 3 2 3 2 1 1 2 2 2 1 3 2 3 3 3 4 6 1 2 2 2 4 4 2 6 5 8 7 5 6 9 6 9
5 4 15 3 4 5 2 2 1 1 2 2 2 3 3 2 2 2 2 2 4 2 2 0 3 3 5 1 1 2 3 5 4 3 2 3 6 3 8 11 4 7 7 8 10
4 4 11 7 3 2 1 2 3 1 2 4 2 4 2 2 2 3 3 1 1 3 2 1 1 3 6 4 3 2 4 4 3 3 5 4 5 1 3 3 8 3 5 9 13
4 3 6 9 5 4 2 2 2 1 1 2 2 1 1 1 2 1 1 1 1 2 2 2 1 6 6 4 3 4 5 5 5 3 3 6 4 3 4 3 2 2 6 11 15
6 3 4 3 6 5 1 0 3 1 0 0 1 2 0 2 3 2 2 2 1 3 1 3 3 3 5 8 6 8 10 9 10 11 8 4 6 6 7 4 4 1 8 15 15
4 4 2 2 3 5 5 3 1 2 4 2 3 3 3 3 2 2 1 3 4 1 3 1 3 3 5 7 6 7 12 13 15 15 15 14 24 13 24 6 2 4 12 17 15
8 5 2 1 4 3 3 3 3 3 1 1 2 1 2 3 1 4 4 5 4 6 6 5 2 2 5 6 8 8 7 11 5 6 12 13 12 3 4 4 0 10 14 10 14
Wind_Direction
129 143 148 160 163 172 174 188 162 171 184 156 156 138 126 123 125 144 151 128 156 146 130 125 130 117 99 92 48 338 60 69 356 87 151 121 100 74 327 228 217 256 253 264 197
104 123 135 150 153 161 162 174 157 145 150 144 142 134 129 113 126 126 99 125 142 140 135 121 119 113 98 49 25 55 80 117 334 72 104 113 93 342 327 344 264 232 231 223 214
102 108 117 130 149 145 152 157 114 135 141 135 140 134 126 131 147 34 79 126 146 145 129 125 130 132 77 60 23 32 119 140 35 64 65 72 47 340 314 285 219 185 209 209 218
93 99 104 96 130 139 131 89 140 134 134 133 141 135 108 75 142 56 110 136 149 154 139 128 121 89 97 82 45 88 45 70 102 50 60 59 309 307 238 227 221 296 253 225 248
87 84 84 103 126 115 115 119 138 138 133 130 133 123 101 89 65 81 121 139 147 149 142 127 104 84 99 102 57 81 96 53 79 62 360 291 274 257 264 256 251 253 263 268 266
91 92 101 113 106 106 117 132 132 133 128 125 92 44 108 81 80 69 103 133 149 149 142 115 98 89 94 72 76 63 108 125 68 317 322 305 276 344 261 261 241 243 248 263 270
102 95 97 104 148 128 129 124 128 126 121 106 88 69 100 84 89 90 77 126 132 142 141 110 124 110 93 89 98 117 75 282 214 237 285 320 283 216 288 196 229 259 260 259 272
81 84 93 105 110 114 116 121 122 116 115 116 79 80 79 87 90 115 99 102 113 121 123 115 115 96 63 111 78 101 66 22 223 341 292 14 275 265 238 218 221 247 261 252 252
60 73 70 82 91 99 103 102 97 98 107 104 65 64 76 72 89 103 108 105 99 103 104 106 87 76 80 69 22 354 195 197 300 93 322 64 277 270 208 251 257 257 268 261 253
58 62 73 89 97 98 100 94 82 82 98 88 78 68 62 60 75 88 101 111 103 104 89 70 66 61 30 62 194 257 26 332 335 26 287 262 269 277 267 271 271 279 254 256 196
63 77 90 101 94 85 135 322 82 92 60 65 78 81 98 80 72 85 105 100 88 72 80 41 70 101 154 54 162 181 3 296 289 17 357 227 275 292 295 270 262 251 218 151 155
57 69 86 151 301 337 128 111 121 121 67 64 71 82 65 58 71 80 82 67 62 89 70 30 91 231 298 321 279 356 9 325 286 33 346 316 295 296 356 9 207 158 144 147 158
48 66 70 70 73 95 121 113 107 96 82 46 47 50 47 52 47 21 53 73 69 51 27 117 167 223 300 40 22 53 139 28 243 331 254 312 316 359 7 59 82 102 137 156 173
52 66 81 87 85 90 102 94 89 86 80 331 3 10 25 61 45 33 61 75 42 113 82 79 313 2 354 138 261 180 45 24 357 32 272 49 280 319 280 108 116 118 127 138 146
47 66 71 94 135 128 99 58 38 137 67 305 352 23 55 63 127 27 49 58 89 102 83 231 168 200 225 162 39 145 341 54 73 7 35 318 72 269 224 327 67 120 118 114 88
45 46 125 150 110 124 50 30 77 43 272 359 302 222 98 78 60 85 52 71 109 77 49 134 175 103 185 151 129 320 53 38 48 74 24 248 114 292 279 227 132 112 110 86 38
57 40 45 130 167 151 104 56 35 87 254 313 47 328 89 19 64 64 101 46 107 74 348 60 127 159 60 30 9 63 52 347 359 10 215 253 41 240 283 63 141 144 96 66 48
62 42 31 59 120 143 129 52 71 217 159 255 264 296 88 7 15 123 137 94 33 83 103 120 329 193 130 73 170 48 129 144 228 244 266 200 239 258 225 124 118 103 84 68 24
74 51 34 39 105 135 121 53 179 174 323 169 285 180 32 3 62 13 63 88 49 38 134 149 281 31 44 36 85 24 75 144 117 310 38 237 267 314 60 80 82 85 68 51 32
42 31 20 55 102 76 74 143 139 338 348 312 283 136 155 173 97 161 157 320 124 59 43 193 38 180 127 52 356 154 302 76 1 160 277 291 268 223 188 140 135 95 93 60 17
46 50 11 63 69 58 107 152 117 34 30 48 23 50 75 128 110 142 118 331 74 191 3 55 103 301 74 196 179 115 263 221 153 155 186 300 273 218 180 190 133 129 111 61 21
43 51 8 17 44 50 75 33 108 125 10 0 21 49 62 56 49 81 93 75 48 64 58 320 145 226 241 126 93 190 219 162 125 238 227 154 275 232 170 196 89 145 98 52 21
50 27 15 22 81 30 176 77 76 66 52 26 74 29 6 59 92 57 80 15 84 47 131 95 320 3 336 350 345 223 233 204 112 79 223 146 265 154 134 47 351 136 54 19 2
52 25 28 53 47 119 115 122 87 35 91 73 124 33 21 114 57 111 146 143 117 74 118 65 216 182 199 210 158 234 227 214 153 144 210 224 250 188 136 165 120 89 8 354 349
53 75 17 347 357 7 90 349 135 169 139 155 215 209 122 154 171 196 156 159 180 183 154 123 233 238 256 254 226 231 233 216 202 205 192 220 222 233 218 250 196 343 347 340 344
46 55 23 317 333 352 4 356 73 167 153 197 162 176 182 179 140 163 152 199 215 166 169 172 271 332 285 267 252 262 243 229 234 237 247 257 272 266 277 198 164 345 348 339 337
37 16 39 14 358 60 325 339 6 356 350 156 195 74 235 238 255 258 243 255 184 165 194 159 173 36 266 329 325 291 246 209 196 209 217 224 244 239 157 163 349 338 337 334 332
Height
1457 1462 1465 1468 1470 1472 1475 1477 1481 1486 1489 1491 1495 1497 1502 1506 1509 1510 1512 1513 1514 1516 1517 1519 1521 1522 1523 1525 1525 1525 1533 1539 1539 1535 1540 1538 1540 1541 1541 1541 1542 1541 1540 1541 1543
1464 1466 1468 1470 1472 1473 1477 1481 1484 1486 1490 1492 1497 1500 1503 1507 1510 1511 1512 1512 1514 1516 1517 1519 1521 1523 1524 1526 1526 1526 1538 1538 1537 1536 1537 1537 1539 1541 1540 1540 1540 1540 1539 1540 1541
1468 1469 1471 1473 1475 1478 1482 1485 1486 1489 1492 1494 1500 1503 1504 1507 1510 1511 1511 1513 1515 1516 1518 1519 1521 1524 1525 1527 1528 1529 1538 1535 1538 1537 1537 1537 1538 1539 1539 1539 1539 1538 1538 1539 1539
1473 1473 1474 1476 1478 1482 1485 1485 1490 1492 1495 1499 1503 1504 1506 1508 1514 1511 1511 1513 1515 1517 1519 1520 1521 1524 1527 1529 1530 1535 1536 1535 1538 1538 1538 1539 1539 1538 1537 1535 1536 1537 1537 1537 1537
1477 1478 1479 1480 1482 1485 1489 1492 1495 1497 1499 1502 1506 1505 1507 1509 1512 1512 1512 1514 1516 1518 1519 1520 1521 1523 1528 1529 1531 1533 1537 1538 1539 1539 1539 1539 1539 1538 1531 1531 1533 1535 1535 1535 1535
1481 1481 1483 1484 1487 1490 1494 1497 1499 1501 1502 1505 1507 1507 1508 1511 1513 1513 1514 1515 1516 1518 1520 1521 1523 1524 1528 1531 1533 1535 1536 1539 1540 1540 1539 1539 1537 1537 1527 1527 1528 1530 1531 1531 1531
1489 1489 1491 1489 1494 1497 1499 1500 1502 1503 1505 1507 1508 1508 1508 1514 1513 1513 1515 1516 1517 1519 1520 1522 1524 1526 1529 1532 1535 1535 1537 1539 1540 1540 1540 1539 1533 1533 1524 1525 1526 1528 1528 1529 1529
1496 1496 1497 1498 1499 1501 1502 1503 1504 1506 1507 1510 1510 1510 1513 1516 1515 1516 1517 1517 1518 1519 1522 1524 1526 1527 1530 1534 1536 1537 1538 1544 1539 1539 1540 1539 1537 1524 1524 1523 1524 1525 1525 1525 1525
1501 1500 1501 1500 1501 1503 1505 1506 1508 1509 1511 1512 1512 1512 1517 1517 1518 1518 1519 1519 1519 1520 1523 1525 1527 1531 1533 1538 1547 1542 1546 1540 1538 1538 1540 1540 1535 1525 1524 1522 1521 1522 1522 1522 1522
1505 1505 1504 1504 1505 1507 1508 1510 1510 1511 1513 1513 1513 1516 1519 1521 1519 1520 1520 1521 1521 1522 1525 1526 1528 1536 1541 1546 1560 1550 1547 1542 1538 1541 1539 1540 1533 1521 1521 1518 1515 1517 1518 1519 1519
1511 1510 1510 1510 1510 1512 1512 1511 1514 1516 1515 1517 1518 1520 1522 1522 1522 1522 1523 1523 1522 1524 1529 1530 1541 1557 1546 1542 1543 1545 1543 1545 1538 1539 1539 1538 1533 1519 1512 1511 1511 1513 1515 1518 1520
1515 1515 1514 1514 1513 1513 1513 1511 1512 1516 1519 1520 1522 1523 1524 1523 1524 1524 1525 1525 1525 1530 1529 1538 1550 1546 1544 1541 1544 1543 1543 1546 1544 1539 1544 1537 1527 1518 1511 1508 1508 1511 1515 1518 1520
1518 1517 1516 1515 1514 1514 1514 1514 1515 1515 1518 1526 1526 1527 1527 1527 1527 1527 1527 1526 1528 1534 1536 1542 1547 1545 1543 1541 1546 1547 1547 1551 1553 1545 1542 1540 1529 1517 1515 1513 1512 1514 1517 1519 1520
1519 1519 1518 1518 1520 1518 1517 1517 1517 1516 1532 1535 1531 1530 1529 1529 1531 1530 1529 1530 1531 1539 1540 1544 1545 1543 1544 1547 1549 1546 1549 1550 1550 1560 1564 1543 1558 1529 1519 1518 1516 1518 1518 1520 1521
1520 1519 1519 1519 1519 1518 1519 1518 1518 1519 1563 1537 1533 1532 1531 1532 1533 1532 1530 1530 1534 1537 1541 1549 1547 1547 1549 1549 1546 1548 1549 1549 1551 1560 1560 1547 1568 1535 1521 1519 1520 1520 1520 1521 1521
1521 1520 1519 1519 1519 1519 1518 1518 1519 1538 1564 1541 1535 1534 1534 1533 1533 1533 1532 1533 1536 1538 1542 1547 1548 1549 1548 1546 1547 1547 1548 1552 1557 1564 1575 1550 1561 1552 1531 1521 1523 1523 1522 1521 1522
1522 1521 1520 1518 1519 1518 1518 1519 1539 1555 1542 1541 1538 1533 1533 1535 1534 1534 1535 1538 1542 1555 1563 1547 1548 1547 1546 1546 1546 1550 1563 1584 1575 1571 1569 1554 1570 1543 1524 1521 1522 1523 1522 1522 1522
1522 1522 1520 1519 1518 1518 1519 1522 1551 1537 1539 1537 1536 1534 1536 1536 1536 1535 1537 1544 1541 1541 1561 1562 1565 1548 1547 1548 1551 1549 1560 1583 1566 1576 1570 1552 1559 1538 1521 1522 1522 1522 1522 1523 1522
1524 1523 1520 1519 1519 1520 1521 1546 1548 1538 1535 1537 1537 1536 1538 1536 1536 1536 1537 1542 1542 1542 1552 1551 1551 1548 1548 1548 1550 1551 1562 1555 1569 1563 1572 1560 1533 1526 1522 1522 1522 1522 1522 1522 1522
1524 1523 1522 1521 1521 1521 1525 1542 1541 1538 1537 1536 1538 1535 1539 1538 1539 1539 1541 1543 1544 1544 1544 1545 1558 1548 1549 1549 1550 1552 1554 1564 1574 1558 1556 1556 1530 1541 1530 1525 1522 1522 1522 1522 1522
1524 1525 1525 1523 1523 1523 1540 1541 1539 1538 1538 1538 1539 1536 1536 1537 1538 1538 1542 1545 1543 1544 1544 1544 1552 1555 1551 1553 1553 1558 1557 1554 1558 1562 1560 1556 1548 1520 1525 1522 1521 1521 1521 1521 1520
1526 1527 1527 1525 1526 1530 1538 1536 1537 1538 1538 1538 1538 1538 1539 1538 1538 1539 1542 1544 1543 1544 1545 1547 1552 1565 1552 1547 1546 1546 1546 1550 1567 1549 1557 1560 1550 1515 1518 1519 1520 1520 1520 1520 1519
1528 1529 1529 1526 1538 1540 1537 1537 1537 1538 1538 1538 1539 1539 1538 1540 1542 1541 1542 1544 1544 1545 1547 1547 1555 1576 1556 1553 1548 1547 1545 1544 1549 1556 1554 1558 1539 1517 1518 1519 1518 1520 1519 1518 1517
1529 1533 1531 1531 1533 1535 1536 1537 1539 1539 1539 1539 1539 1539 1540 1541 1541 1543 1543 1545 1545 1545 1546 1546 1551 1554 1562 1546 1545 1547 1542 1541 1546 1567 1550 1543 1524 1519 1519 1518 1518 1518 1517 1516 1515
1531 1538 1539 1541 1537 1537 1536 1535 1538 1539 1539 1539 1540 1539 1540 1541 1541 1542 1541 1544 1545 1545 1546 1548 1553 1548 1546 1543 1542 1539 1536 1536 1543 1534 1539 1523 1523 1516 1515 1515 1515 1515 1514 1513 1511
1536 1537 1538 1538 1538 1538 1539 1538 1536 1537 1538 1539 1539 1537 1537 1539 1539 1539 1539 1541 1541 1546 1546 1546 1551 1546 1546 1536 1536 1536 1527 1527 1526 1524 1524 1521 1511 1508 1508 1510 1512 1511 1510 1509 1508
1540 1539 1537 1537 1537 1540 1543 1541 1540 1539 1538 1537 1537 1537 1537 1537 1537 1537 1538 1538 1540 1542 1545 1548 1550 1553 1548 1538 1536 1530 1513 1513 1514 1511 1510 1518 1500 1503 1506 1508 1509 1508 1507 1507 1506